59P/Kearns-Kwee (2018)

Japanese version
Home page
Updated on April 4, 2021

---------------------------------------------------------------------

* Profile

* Pictures

* Orbital Elements

Epoch 2018 Aug. 30.0 TT = JDT 2458360.5                                         
T 2018 Sept. 16.77571 TT                                Rudenko                 
q   2.3587145            (2000.0)            P               Q                  
n   0.10341931     Peri.  127.70161     +0.15684460     -0.98042600             
a   4.4950545      Node   312.82810     +0.84736336     +0.19549102             
e   0.4752645      Incl.    9.33923     +0.50732151     -0.02341198             
P   9.53                                                                        
From 1574 observations 1972 Sept. 4-2019 Apr. 8, mean residual 1".1.            
     Nongravitational parameters A1 = -2.72, A2 = -2.9726.                      

* Finding Charts

* Magnitudes Graph

        m1 = 11.0 + 5 log d + 12.0 log r

---------------------------------------------------------------------

The orbital elements are published on M.P.E.C. 2021-F20.
The charts are made with StellaNavigator Ver.10 (AstroArts).
The magnitudes graphs are made with Comet for Windows.

---------------------------------------------------------------------

Copyright(C) Seiichi Yoshida (comet@aerith.net). All rights reserved.